Regional Weather Roundup
Issued by NWS

Home | Current Version | Previous Version | Text Only | Print | Product List | Glossary On
Versions: 1 2 3 4 5 6 7 8 9 10 11 12 13 14 15 16 17 18 19 20 21 22 23 24 25 26 27 28 29 30 31 32 33 34 35 36 37 38 39 40 41 42 43 44 45 46 47 48 49 50
000
ASUS43 KDTX 231001
RWRMI
MICHIGAN HOURLY REGIONAL WEATHER ROUNDUP
NATIONAL WEATHER SERVICE DETROIT/PONTIAC MI
600 AM EDT MON OCT 23 2017

NOTE: "FAIR" INDICATES FEW OR NO CLOUDS BELOW 12,000 FEET WITH NO
SIGNIFICANT WEATHER AND/OR OBSTRUCTION TO VISIBILITY.

MIZ047>049-052>055-059>063-066>070-074>076-081>083-231100-
SOUTHEAST LOWER MICHIGAN

CITY           SKY/WX    TMP DP  RH WIND       PRES   REMARKS
ADRIAN         CLOUDY    60  49  66 S5        29.93F
ALMA           CLOUDY    55  54  95 CALM      29.91F
ANN ARBOR      CLOUDY    59  51  75 SE3       29.93F
BAD AXE        CLOUDY    59  49  70 S6        29.93F
CARO           MOCLDY    63  48  57 SE3       29.91F
DETROIT CITY   CLOUDY    62  53  72 S6        29.95F
DETROIT        CLOUDY    62  53  72 S9        29.94F
FLINT          CLOUDY    64  49  57 S7        29.91F
GROSSE ILE     CLOUDY    61  56  83 S7        29.94F
HILLSDALE      CLOUDY    61  48  63 SE3       29.90F
HOWELL         CLOUDY    62  49  63 SE9       29.92S

CITY           SKY/WX    TMP DP  RH WIND       PRES   REMARKS
JACKSON        MOCLDY    63  49  60 SE7       29.91F
LAMBERTVILLE   CLOUDY    64  50  59 SE5       29.93F
LANSING        CLOUDY    64  52  64 VRB5      29.90F
LAPEER         FAIR      63  49  59 S8        29.93F
MASON          CLOUDY    65  50  59 S6        29.91S
MONROE         CLOUDY    63  51  65 SE7       29.93F
MT. CLEMENS    CLOUDY    60  59  99 CALM      29.94F
PONTIAC        CLOUDY    61  51  70 SE5       29.93F
PORT HOPE        N/A     65  49  56 VRB3      29.91F
PORT HURON     CLOUDY    63  54  72 SE5       29.96F
TRI CITIES     CLOUDY    60  58  92 N6        29.92F
MIDLAND        DRIZZLE   57  55  91 N3        29.91F
TROY           CLOUDY    64  51  63 CALM      29.96F
SAGINAW HB     CLOUDY    64  50  59 CALM      29.90F
$$
MIZ043>046-050>051-056>058-064>065-071>073-077>080-231100-
SOUTHWEST LOWER MICHIGAN

CITY           SKY/WX    TMP DP  RH WIND       PRES   REMARKS
BATTLE CREEK   LGT RAIN  61  60  97 CALM      29.89F
BENTON HARBOR  RAIN      56  53  90 VRB5      29.89F FOG
BIG RAPIDS     LGT SNOW  51  49  94 N3        29.92F
COLDWATER      CLOUDY    64  49  58 SE5       29.89F
FREMONT        HVY RAIN  51  51 100 N5        29.94R
HOLLAND        LGT RAIN  53  51  93 VRB5      29.91F
GRAND RAPIDS   LGT RAIN  56  55  97 N7        29.89F
IONIA          LGT RAIN  57  56  99 CALM      29.89F
KALAMAZOO      CLOUDY    60  56  86 N3        29.88F
LUDINGTON      RAIN      50  50  97 CALM      29.95S
MARSHALL       CLOUDY    62  51  66 CALM      29.89F
MOUNT PLEASANT LGT RAIN  56  55  94 CALM      29.91F
MUSKEGON       HVY RAIN  53  51  93 N9        29.93F FOG
SOUTH HAVEN    LGT RAIN  55  54  95 N5        29.89S
$$
MIZ016>042-231100-
NORTHERN LOWER MICHIGAN

CITY           SKY/WX    TMP DP  RH WIND       PRES   REMARKS
ALPENA         RAIN      51  51 100 N8        29.96S
BEAVER ISLAND  CLOUDY    51  48  92 CALM      29.95S
BELLAIRE       LGT RAIN  50  48  95 CALM      29.94F
CADILLAC       HVY RAIN  52  49  90 N5        29.92F
CHARLEVOIX     RAIN      51  51 100 CALM      29.97F
FRANKFORT      RAIN      52  52 100 CALM      29.95S
GAYLORD        RAIN      47  45  93 VRB5      29.94F FOG
GRAYLING       RAIN      50  48  92 N5        29.95F
HARBOR SPRINGS RAIN      49  48  95 E6        29.94F
HOUGHTON LAKE  LGT RAIN  51  50  96 NE6       29.93F
MANISTEE       RAIN      51  50  96 CALM      29.95R
OSCODA         LGT RAIN  56  54  92 N3        29.94R
PELLSTON       LGT RAIN  50  49  96 CALM      29.96F FOG
ROGERS CITY    RAIN      50  49  96 NW6       29.96F
TRAVERSE CITY  LGT RAIN  53  51  93 NW3       29.94S
$$
MIZ007>008-015-231100-
EASTERN UPPER MICHIGAN

CITY           SKY/WX    TMP DP  RH WIND       PRES   REMARKS
KINROSS        LGT RAIN  48  48 100 CALM      29.95F
MACKINAC ISLAN LGT RAIN  50  50 100 CALM      29.95S
NEWBERRY       CLOUDY    44  43  97 CALM      29.94S
S. S. MARIE    LGT RAIN  50  49  96 CALM      29.95S
MUNISING         N/A     42  42 100 SE5       29.92F
$$
MIZ004>006-011>014-085-231100-
CENTRAL UPPER MICHIGAN

CITY           SKY/WX    TMP DP  RH WIND       PRES   REMARKS
MANISTIQUE     HAZE      38  33  81 CALM      29.94S VSB 1/2
ESCANABA       CLOUDY    44  43  96 CALM      29.94F FOG
MENOMINEE      FOG       44  43  96 CALM      29.95F VSB 1/2
SAWYER-GWINN   FOG       40  40  98 S6        29.92F VSB 1/2
$$
MIZ001>003-009>011-084-231100-
WESTERN UPPER MICHIGAN

CITY           SKY/WX    TMP DP  RH WIND       PRES   REMARKS
IRON MOUNTAIN  FOG       32  30  92 CALM      29.91S VSB 1/4
HOUGHTON       PTCLDY    43  39  86 S5        29.85F
COPPER HARBOR    N/A     48  38  68 W8G17     29.85S
IRONWOOD       LGT RAIN  47  39  74 S12       29.82F
$$

ABBREVIATIONS USED IN REMARKS
   TC - TEMPERATURE IN CELSIUS
  WCI - WIND CHILL INDEX
   HX - HEAT INDEX
  VSB - VISIBILITY




USA.gov is the U.S. government's official web portal to all federal, state and local government web resources and services.